星链-32343 (STARLINK-32343)

导读

STARLINK-32343是美国SpaceX公司星链星座的一员,于2024年10月30日发射。星链项目旨在构建覆盖全球的低轨卫星互联网通信系统,该卫星加入星座后,可扩展全球网络覆盖范围,为偏远地区、海洋空域等场景提供高速宽带服务,支撑星链系统持续提升全球互联网接入能力,推动全球卫星通信网络建设。

Basic Information
目录编号:
61712
目录名称:
STARLINK-32343
国际标识:
2024-196F
轨道中心:
EARTH
卫星名称:
星链-32343
卫星全名:
星链-32343 (STARLINK-32343)
卫星状态:
在轨 (已飞行674 天)
发射日期:
2024-10-30 UTC
国别 :
美国 (US)
星等 :
--
Orbit Information
数据来源 国际轨道数据
星历时间: 2026-09-04T14:03:40+0800
10小时前
查看轨道信息
半长轴: 6840.889km
偏心率: 0.0001045
轨道倾角: 53.160°
近地点辐角 76.846°
升交点赤经 349.928°
平近点角 283.266°
近地点: 462.037km
远地点: 463.467km
周期: 93.849分钟
每日圈数: 15.343839
Detailed Information
固有亮度:
5
最大亮度:
2.5
卫星平台:
Starlink V1.0
覆盖范围:
全球
运营商:
太空探索技术公司
运营商所在国:
美国
制造商(研发单位):
太空探索技术公司
制造商所在国:
美国
使用方式:
暂无
Satellite Introduction
Starlink 计划是 SpaceX 推出的全球卫星互联网项目,通过发射低轨道卫星,为全球尤其是偏远地区提供高速、低延迟的互联网服务。自 2019 年起,Starlink 已部署数千颗卫星,旨在缩小全球数字鸿沟,推动互联网普及。该项目还为军事、航空等行业提供通信支持,带来广泛经济效益。
2D Orbit Map
3D Orbit Map
Orbit Altitude Analysis Chart
Orbit Inclination Analysis Chart
Orbit Comprehensive Analysis Chart
View Comprehensive Chart
Conjunction Data List
Event ID Objects TCA Miss Dist (km) Collision Risk Probability Collision Risk Index (CRI) Action
CDM_260906-190106-171206-623721
2026-09-06T
19:01:51+0000
0.831 km
远距离
4.423581E-5 中风险 0.68
CDM_260906-122003-622506-171221
2026-09-06T
12:20:04+0000
1.293 km
极远距离
8.829522E-6 低风险 0.54
CDM_260906-190606-171206-918421
2026-09-06T
19:06:07+0000
1.810 km
极远距离
3.284727E-6 低风险 0.45
CDM_260906-183806-171206-601321
2026-09-06T
18:38:32+0000
1.159 km
极远距离
1.834517E-6 低风险 0.4